FW9613 Weather Reports


Display with metric or nautical units.
time (UTC)temp
F
wind
direction
speed
MPH
gust
MPH
rain 1hr
in
rain 24hr
in
rain mn
in
humidity
%
barometer
mb
20260507200054 66 248 10.0 17.0 0.00 0.00 0.00 34 1015.4
20260507194554 65 240 7.0 14.0 0.00 0.00 0.00 35 1015.5
20260507193101 65 253 12.0 19.0 0.00 0.00 0.00 34 1015.9
20260507191553 65 282 8.0 18.0 0.00 0.00 0.00 35 1016.0
20260507190052 65 189 8.0 16.0 0.00 0.00 0.00 33 1016.0
20260507184554 65 232 9.0 20.0 0.00 0.00 0.00 33 1016.0
20260507183058 64 244 8.0 18.0 0.00 0.00 0.00 35 1016.3
20260507181553 65 242 7.0 15.0 0.00 0.00 0.00 32 1016.4
20260507180053 64 211 3.0 16.0 0.00 0.00 0.00 35 1016.8
20260507174605 64 218 9.0 17.0 0.00 0.00 0.00 34 1016.9
20260507173101 64 252 3.0 15.0 0.00 0.00 0.00 34 1017.2
20260507171609 62 253 4.0 15.0 0.00 0.00 0.00 34 1017.3
20260507170057 63 265 7.0 14.0 0.00 0.00 0.00 31 1017.6
20260507164607 62 265 7.0 12.0 0.00 0.00 0.00 37 1017.6
20260507163051 62 244 4.0 12.0 0.00 0.00 0.00 35 1017.7
20260507161603 62 209 6.0 11.0 0.00 0.00 0.00 35 1017.8
20260507160058 61 240 5.0 15.0 0.00 0.00 0.00 36 1018.0
20260507154555 60 211 8.0 12.0 0.00 0.00 0.00 38 1018.1
20260507153052 60 221 3.0 13.0 0.00 0.00 0.00 39 1018.1
20260507151552 61 231 1.0 10.0 0.00 0.00 0.00 41 1018.2
20260507144553 59 207 2.0 9.0 0.00 0.00 0.00 41 1018.4
20260507143055 58 230 6.0 8.0 0.00 0.00 0.00 40 1018.4
20260507141554 58 144 4.0 9.0 0.00 0.00 0.00 45 1018.4
20260507140051 57 162 2.0 6.0 0.00 0.00 0.00 48 1018.5
20260507134555 55 157 3.0 6.0 0.00 0.00 0.00 51 1018.5
20260507133057 54 126 4.0 7.0 0.00 0.00 0.00 52 1018.7
20260507131558 52 218 3.0 8.0 0.00 0.00 0.00 59 1018.7
20260507130051 50 196 3.0 6.0 0.00 0.00 0.00 62 1018.7
20260507124555 48 171 2.0 5.0 0.00 0.00 0.00 68 1018.5
20260507123051 46 0 0.0 4.0 0.00 0.00 0.00 72 1018.5
20260507121601 45 0 0.0 0.0 0.00 0.00 0.00 73 1018.4
20260507120055 45 0 0.0 0.0 0.00 0.00 0.00 73 1018.1
20260507114549 44 0 0.0 0.0 0.00 0.00 0.00 74 1018.1
20260507113052 44 0 0.0 0.0 0.00 0.00 0.00 77 1018.0
20260507111549 44 0 0.0 0.0 0.00 0.00 0.00 76 1017.9
20260507110105 43 0 0.0 3.0 0.00 0.00 0.00 76 1017.7
20260507104550 43 176 1.0 2.0 0.00 0.00 0.00 77 1017.6
20260507103056 43 176 1.0 3.0 0.00 0.00 0.00 77 1017.7
20260507101551 43 0 0.0 0.0 0.00 0.00 0.00 77 1017.7
20260507100051 43 0 0.0 0.0 0.00 0.00 0.00 78 1017.7
20260507094608 42 0 0.0 0.0 0.00 0.00 0.00 77 1017.7
20260507093100 42 0 0.0 0.0 0.00 0.00 0.00 77 1017.7
20260507091618 42 0 0.0 1.0 0.00 0.00 0.00 77 1017.6
20260507090104 42 0 1.0 2.0 0.00 0.00 0.00 76 1017.6
20260507084555 42 0 0.0 1.0 0.00 0.00 0.00 76 1017.4
20260507083053 43 0 0.0 0.0 0.00 0.00 0.00 77 1017.5
20260507081555 43 0 0.0 3.0 0.00 0.00 0.00 76 1017.7
20260507080056 43 0 0.0 0.0 0.00 0.00 0.00 76 1018.0
20260507074550 43 0 0.0 0.0 0.00 0.00 0.00 75 1018.1
20260507073050 43 0 0.0 0.0 0.00 0.00 0.00 75 1018.1
20260507071554 44 0 0.0 0.0 0.00 0.00 0.00 75 1018.1
20260507070103 44 0 0.0 0.0 0.00 0.00 0.00 73 1018.1
20260507064553 44 0 0.0 0.0 0.00 0.00 0.00 71 1018.1
20260507063054 45 0 0.0 0.0 0.00 0.00 0.00 69 1018.1
20260507061605 45 0 0.0 0.0 0.00 0.00 0.00 67 1018.0
20260507060104 46 0 0.0 3.0 0.00 0.00 0.00 66 1018.2
20260507054555 46 0 0.0 3.0 0.00 0.00 0.00 66 1018.4
20260507053053 46 0 0.0 2.0 0.00 0.00 0.00 65 1018.1
20260507051553 47 0 1.0 3.0 0.00 0.00 0.00 65 1018.1
20260507050054 47 318 0.0 2.0 0.00 0.00 0.00 65 1017.9
20260507044548 47 0 0.0 3.0 0.00 0.01 0.00 64 1017.9
20260507043055 48 314 2.0 4.0 0.00 0.01 0.00 63 1017.9
20260507041550 48 341 1.0 4.0 0.00 0.01 0.00 63 1017.9
20260507040052 49 327 2.0 7.0 0.00 0.01 0.00 62 1017.9
20260507034557 49 321 3.0 6.0 0.00 0.04 0.00 61 1017.8
20260507033050 49 348 3.0 5.0 0.00 0.04 0.00 61 1017.8
20260507031546 50 300 2.0 4.0 0.00 0.04 0.00 58 1017.8
20260507030052 51 350 2.0 4.0 0.00 0.04 0.00 55 1017.7
20260507024556 51 11 2.0 5.0 0.00 0.10 0.00 54 1017.7
20260507023050 52 338 2.0 6.0 0.00 0.10 0.00 54 1017.5
20260507021557 52 338 2.0 5.0 0.00 0.10 0.00 54 1017.5
20260507020053 53 338 1.0 5.0 0.00 0.10 0.00 53 1017.4
20260507014550 53 344 2.0 5.0 0.00 0.43 0.00 52 1017.2
20260507013049 54 14 3.0 6.0 0.00 0.43 0.00 51 1017.1
20260507011551 55 22 1.0 5.0 0.00 0.43 0.00 52 1017.0
20260507010105 55 19 1.0 5.0 0.00 0.43 0.00 51 1016.6
20260507004553 56 352 3.0 9.0 0.00 0.46 0.00 49 1016.6
20260507003055 56 325 4.0 9.0 0.00 0.46 0.00 49 1016.3
20260507001558 57 31 5.0 9.0 0.00 0.46 0.00 49 1015.8
20260507000059 57 360 5.0 10.0 0.00 0.46 0.00 48 1016.0
20260506234602 58 352 5.0 13.0 0.00 0.46 0.00 47 1015.7
20260506233103 59 342 6.0 13.0 0.00 0.46 0.00 44 1015.8
20260506231554 59 10 4.0 13.0 0.00 0.46 0.00 45 1015.7
20260506230053 59 352 9.0 16.0 0.00 0.46 0.00 44 1015.8
20260506224600 59 17 8.0 15.0 0.00 0.47 0.00 43 1016.0
20260506223100 60 360 7.0 13.0 0.00 0.47 0.00 43 1015.7
20260506221553 60 301 8.0 12.0 0.00 0.47 0.00 40 1015.9
20260506220057 60 271 3.0 18.0 0.00 0.47 0.00 40 1015.9
20260506214601 61 329 5.0 15.0 0.00 0.48 0.00 42 1015.9
20260506213057 61 323 8.0 16.0 0.00 0.48 0.00 40 1015.9
20260506211554 60 290 7.0 12.0 0.00 0.48 0.00 40 1015.8
20260506210052 60 320 5.0 13.0 0.00 0.48 0.00 42 1015.8
20260506204608 60 347 10.0 14.0 0.00 0.48 0.00 43 1016.1
20260506203052 60 347 9.0 15.0 0.00 0.48 0.00 46 1016.3
20260506201550 59 15 3.0 9.0 0.00 0.48 0.00 47 1016.7